Regional Weather Roundup
Issued by NWS Wakefield, VA

Home | Current Version | Previous Version | Text Only | Print | Product List | Glossary On
Versions: 1 2 3 4 5 6 7 8 9 10 11 12 13 14 15 16 17 18 19 20 21 22 23 24 25 26 27 28 29 30 31 32 33 34 35 36 37 38 39 40 41 42 43 44 45 46 47 48 49 50
000
ASUS41 KAKQ 280315
RWRAKQ

REGIONAL WEATHER ROUNDUP
NATIONAL WEATHER SERVICE WAKEFIELD VA
1100 PM EDT MON MAR 27 2017

Note: "fair" indicates few or no clouds below 12,000 feet with no
significant weather and/or obstructions to visibility. * = Denotes
station may not report precipitation (e.g., rain,snow,etc.),
thunder or fog.

VAZ042-051-052>054-056-280400-
NORTHERN VIRGINIA

CITY           SKY/WX    TMP DP  RH WIND       PRES   REMARKS
WASH NATIONAL  CLOUDY    62  56  80 NE5       29.92F
DULLES         CLOUDY    61  58  90 CALM      29.91F
FORT BELVOIR   CLOUDY    64  55  73 CALM      29.91F
QUANTICO       CLOUDY    63  55  75 S9        29.92F
FREDERICKSBRG* CLOUDY    70  58  65 S8        29.91F
STAFFORD*      CLOUDY    67  56  70 S5        29.96F
WARRENTON      CLOUDY    61  54  76 CALM      29.91F
CULPEPER*      MOCLDY    61  59  95 CALM      29.93S
MANASSAS*        N/A    N/A N/A N/A CALM      29.92F
LEESBURG*      CLOUDY    64  61  88 S3        29.92F
WINCHESTER     CLOUDY    55  55 100 CALM      29.91F
FRONT ROYAL*   CLOUDY    59  55  88 S5        29.91S
LURAY*         PTCLDY    59  55  88 CALM      29.93S
$$

VAZ048-049-060>072-079>083-280400-
CENTRAL AND SOUTH CENTRAL VIRGINIA

CITY           SKY/WX    TMP DP  RH WIND       PRES   REMARKS
RICHMOND       CLOUDY    66  57  72 S8        29.94F
CHESTERFIELD*  FAIR      66  45  45 S8        29.96F
PETERSBURG*    CLOUDY    63  56  76 CALM      29.96F
HANOVER        CLOUDY    68  55  63 S6        29.95F
TAPPAHANNOCK*  CLOUDY    67  50  53 S5        29.96S
QUINTON*       FAIR      66  58  75 S3        29.94F
CHARLOTTSVILLE CLOUDY    65  57  75 CALM      29.92F
GORDONSVILLE*  CLOUDY    61  57  87 CALM      29.92F
ORANGE*        CLOUDY    63  55  77 CALM      29.94F
LOUISA*        MOCLDY    70  61  73 CALM      29.92F
BUMPASS*       FAIR      65  57  74 SW8       29.93F
FARMVILLE*     CLOUDY    66  59  76 SW3       29.93R
CREWE*         FAIR      66  61  84 CALM      29.95S
FORT PICKETT*  FAIR      66  53  63 S8G17     29.95F
CHASE CITY*    FAIR      67  57  69 CALM      29.96S
CLARKSVILLE*   FAIR      66  59  77 S3        29.95F
SOUTH HILL*    PTCLDY    65  58  77 S6        30.01F
LAWRENCEVILLE* FAIR      64  56  75 SE3       29.96F
EMPORIA*       CLOUDY    63  55  77 SE5       29.98F
$$

VAZ088>098-280400-
SOUTHEAST VIRGINIA

CITY           SKY/WX    TMP DP  RH WIND       PRES   REMARKS
NORFOLK        CLEAR     67  53  61 S10       29.97F
VIRGINIA BEACH MOCLDY    65  52  62 S13       29.97F
NORFOLK NAVAL  MOCLDY    68  52  56 S9        29.98F
WEST POINT*    CLOUDY    63  55  75 SE5       29.96F
SALUDA*        FAIR      58  55  89 E5        29.96R
NEWPORT NEWS   CLOUDY    67  54  63 S13       29.97S
LANGLEY AFB    PTCLDY    66  55  66 S10       29.97S
FORT EUSTIS    PTCLDY    66  55  67 S7        29.94F
WILLIAMSBURG*  CLOUDY    66  57  72 CALM      29.98S
HR EXEC AP*    FAIR      66  52  59 SW13G18   29.97S
FRANKLIN*      PTCLDY    64  54  68 S7        29.99S
US460-WAKEFLD  CLOUDY    66  56  70 S6        29.97S
$$

VAZ020-022-025-037-045-280400-
WEST CENTRAL AND SOUTHWEST VIRGINIA

CITY           SKY/WX    TMP DP  RH WIND       PRES   REMARKS
STAUNTON*      MOCLDY    57  55  91 CALM      29.96S
WAYNESBORO*    CLOUDY    58  58 100 CALM      29.95S
HOT SPRINGS VA CLOUDY    55  50  82 S3        30.02F
LYNCHBURG      CLOUDY    64  57  78 SW3       29.95F
DANVILLE       PTCLDY    66  59  78 SW6       29.95S
SOUTH BOSTON*  FAIR      67  57  69 S5        29.94F
MARTINSVILLE   FOG       57  56  97 CALM      29.98S VSB 3/4
ROANOKE        MOCLDY    68  53  58 SE5       29.95F
BLACKSBURG     CLOUDY    58  52  83 CALM      30.00F
DUBLIN*        CLOUDY    59  53  80 CALM      29.99S
MARION*        CLOUDY    62  52  71 CALM      29.99F
HILLSVILLE*    CLOUDY    59  51  75 S6        29.98F
RICHLANDS*     FAIR      64  48  57 S6        29.96F
WISE*          TSTM      57  55  94 SW9G20    30.01R
ABINGDON*      CLOUDY    62  51  66 CALM      29.95F
$$

MDZ021>025-VAZ099-100-280400-
SOUTHERN MARYLAND AND THE DELMARVA PENINSULA

CITY           SKY/WX    TMP DP  RH WIND       PRES   REMARKS
PATUXENT RIVER CLOUDY    66  58  75 S7        29.93F
BAY BRIDGE APT CLOUDY    54  50  87 CALM      29.93F FOG
LEONARDTOWN    MOCLDY    68  55  64 S6        29.95F
DOVER          MOCLDY    56  56 100 SE5       29.94F
GEORGETOWN     CLOUDY    61  52  72 S7        29.96F
EASTON         MOCLDY    64  55  71 S8        29.97F
CAMBRIDGE      CLEAR     61  54  77 S7        29.95F
SALISBURY      CLOUDY    58  53  84 S3        29.96F
OCEAN CITY     CLOUDY    54  49  83 S6        29.98F
WALLOPS ISLAND CLOUDY    54  52  93 S10       29.98F
ACCOMACK*      PTCLDY    60  53  77 S7        29.97F
$$

NCZ012>017-030>032-280400-
NORTH CENTRAL AND EASTERN NORTH CAROLINA

CITY           SKY/WX    TMP DP  RH WIND       PRES   REMARKS
ROANOKE RAPIDS FAIR      66  55  68 S9G16     29.98S
RALEIGH        CLOUDY    69  55  60 S9        29.98S
ELIZABETH CITY PTCLDY    64  54  69 S12       30.00F
AHOSKIE*         N/A     63  55  74 S8        30.00S
EDENTON*       NOT AVBL
CURRITUCK*     PTCLDY    64  54  69 S6        30.00F
KILL DEVIL HLS NOT AVBL
MANTEO         PTCLDY    60  57  89 S8        30.03F
CAPE HATTERAS  CLEAR     69  58  67 SW9       30.04F
TARBORO*       NOT AVBL
GOLDSBORO      CLOUDY    67  57  68 S9        30.00S
WASHINGTON     CLEAR     64  55  70 S3        30.03R
GREENVILLE     MOCLDY    64  55  72 SW8       30.04R
NEW BERN       CLEAR     63  57  81 S8        30.04F
WILMINGTON     CLEAR     63  57  81 S6        30.04F
$$

VAZ048-280400-
ELSEWHERE

CITY           SKY/WX    TMP DP  RH WIND       PRES   REMARKS
HARRISBURG PA  CLOUDY    51  50  96 W3        29.94S
BALTIMORE      CLOUDY    56  55  97 CALM      29.93F
ANNAPOLIS      CLOUDY    56  53  90 SE5       29.93F
ANDREWS AFB    CLOUDY    63  55  76 CALM      29.92S
PHILADELPHIA   CLOUDY    54  50  86 E6        29.97F FOG
HENDERSON NC   CLOUDY    64  55  71 S7        29.97S
GREENSBORO     PTCLDY    67  60  78 S12       29.95F
ROCKY MOUNT    PTCLDY    67  56  67 S9        30.01S
$$

VAZ100-280400-
MARINE

STATION/POSITION TIME  TEMP    WIND        PRES    WAVE   SWELL
                       AIR SEA DIR/SP/G            HT/PER HT/PER
                 (UTC) (F)     (DEG/KT/KT) (MB)    (FT/S) (FT/S)
CAPE MAY NJ      0248   52 46  140/  7/  9 1014.3F
LEWES DE         0248   61 45  190/  4/  8 1014.3F
OCEAN-CITY-INLET 0248   48 45  200/  7/  9 1015.6F
WACHAPREAGUE VA  0242   57 56  220/  6/ 10 1014.9F
THOMAS POINT MD  0300   53 46  200/ 11/ 11   N/A
GOOSES REEF MD   0250   52     160/ 12/ 14 1014.2F
COVE POINT MD    0242   54     200/ 14/ 15 1014.4F
SOLOMONS ISLAND  0242   57 47   90/  5/  5   N/A
BISHOPS HEAD MD  0248   55 55  170/ 10/ 11 1014.4F
PINEY POINT MD   0248          130/  6/  6   N/A
POTOMAC MD       0250   52     150/  6/  8 1013.4F
CAMBRIDGE MD     0248   62 46  170/  6/  9 1013.3F
LEWISETTA VA     0242   68 54  220/  8/  9 1013.8F
RAPPAHANNOCK LGT 0248          170/ 15/ 16 1015.1F
STINGRAY PT      0250   53     180/ 10/ 10 1014.5F
YORK RVR RNG VA  0242   60     200/ 15/ 16 1014.0F
YORKTOWN VA      0242   68 51  190/  6/ 11 1014.4R
JAMESTOWN VA     0250   64     160/  8/ 10   N/A
DOMINION TERM VA 0242   61     180/ 10/ 11 1015.0F
KIPTOPEKE VA     0248      51  170/ 10/ 11   N/A
CHES BAY BRIDGE  0242   66 49  200/ 12/ 14 1014.9F
CAPE HENRY VA    0248   67     190/  8/ 14   N/A
WILLOUBY STN VA  0242   67     190/ 17/ 19 1015.6F
S CRANEY ISL VA  0242   66     190/ 11/ 14 1014.9F
CAPE HENRY BUOY  0242      51                N/A     3/ 9   2/11
CAPE CHARLES BUO 0251      50                N/A     3/10   2/11
OFFSHORE WE BUOY 0251      51                N/A     3/ 8   2/11
64NM E OF VA BCH 0250   55 49  190/ 10/ 10 1016.5F   4/ 8   3/ 8
DUCK PIER NC     0248   64 49  190/ 13/ 18 1015.7F
44100 DUCK FRF   0235      52                N/A     3/ 9   2/11
44056 DUCK FRF   0230      52                N/A     3/10   2/18
OREGON INLET NC  0242   58 62  180/  8/  9 1016.9F
HATTERAS NC      0248   67 62  210/  7/ 11 1017.2R
DIAMOND SHLS NC  0250   72 74  200/ 14/ 17 1017.4F   4/ 9   3/ 9
CAPE LOOKOUT NC  0300   65     170/  6/  7 1017.3F
$$



USA.gov is the U.S. government's official web portal to all federal, state and local government web resources and services.